[[{"header":{"parameterUnit":"m.s-1","parameterCategory":1,"la1":30.2991,"la2":30.254,"lo1":-89.0895,"lo2":-89.0444,"dy":0.0017,"dx":0.0017,"nx":28,"ny":28,"refTime":"2025-05-22T03:00:00:Z","depth":0,"parameterNumber":2,"parameterNumberName":"U-component_of_WINDS"},"data":[0,0,0,0,0,0,0,0,0,0,0,0,0,0,0,0,0,0,0,0,0,0,0,0,0,0,0,0,0,0,0,0,0,0,0,0,0,0,0,0,0,0,0,0,0,0,0,0,0,0,0,0,0,0,0,0,0,0,-0.8654,-0.8654,0,-0.8639,-0.8638,-0.8638,-0.8546,-0.8543,-0.8541,-0.8539,-0.8527,-0.8529,-0.8531,0,0,0,0,0,0,0,0,0,0,0,0,0,-0.8607,-0.8608,-0.8654,-0.8654,-0.8654,-0.8639,-0.8638,-0.8638,-0.8546,-0.8543,-0.8541,-0.8538,-0.8527,-0.8529,-0.8531,0,0,0,0,0,0,0,0,0,0,0,0,0,-0.8613,-0.8609,-0.8654,-0.8606,-0.8602,-0.8639,-0.8638,-0.8638,-0.8547,-0.8543,-0.854,-0.8537,-0.8526,-0.8528,-0.8531,-0.8615,0,0,-0.8539,-0.854,0,0,0,0,0,0,0,0,-0.8613,-0.8615,-0.8613,-0.8609,-0.8604,-0.8591,-0.8617,-0.863,-0.8548,-0.8568,-0.8539,-0.8535,-0.8551,-0.8552,-0.8556,-0.8614,-0.8614,-0.8539,-0.8541,-0.8542,-0.8543,0,0,0,0,0,0,0,-0.8613,-0.8615,-0.8648,-0.8613,-0.8608,-0.8586,-0.8583,-0.8619,-0.8579,-0.8566,-0.8559,-0.8558,-0.8548,-0.8554,-0.8555,-0.8613,-0.8539,-0.8542,-0.8543,-0.8544,-0.8738,-0.8741,0,0,0,0,0,0,-0.8619,-0.8616,-0.8649,-0.8648,-0.86,-0.859,-0.8586,-0.8599,-0.8578,-0.8572,-0.8561,-0.8554,-0.8551,-0.8552,-0.8554,-0.865,-0.8542,-0.8545,-0.8546,-0.8735,-0.8739,-0.8743,0,0,0,0,0,0,-0.8618,-0.8623,-0.8649,-0.863,-0.8631,-0.8594,-0.8608,-0.86,-0.8605,-0.8574,-0.8567,-0.8574,-0.8548,-0.8551,-0.86,-0.8649,-0.8546,-0.8548,-0.873,-0.8736,-0.8741,-0.8844,0,0,0,0,0,0,-0.8617,-0.8623,-0.8654,-0.8631,-0.8633,-0.8695,-0.8611,-0.8602,-0.861,-0.86,-0.8585,-0.8579,-0.8546,-0.8596,-0.8603,-0.8651,-0.855,-0.8726,-0.8733,-0.8739,-0.8836,-0.8852,-0.8866,0,0,0,0,0,-0.8616,-0.8685,-0.8656,-0.866,-0.8671,-0.8698,-0.8699,-0.8658,-0.8614,-0.8645,-0.8625,-0.8579,-0.8642,-0.8602,-0.8608,-0.8658,-0.8723,-0.8731,-0.8739,-0.8829,-0.8849,-0.8865,0,0,0,0,0,0,-0.8716,-0.8681,-0.8649,-0.8712,-0.8708,-0.8682,-0.872,-0.8681,-0.869,-0.8681,-0.8632,-0.8629,-0.8686,-0.8676,-0.8633,-0.8737,-0.8674,-0.8684,-0.8741,-0.876,-0.8774,-0.8776,-0.8553,0,0,0,0,0,-0.8745,-0.8769,-0.8737,-0.8797,-0.8796,-0.8759,-0.8769,-0.8738,-0.8732,-0.8731,-0.8714,-0.8712,-0.8731,-0.8744,-0.876,-0.8834,-0.8829,-0.8871,-0.8885,-0.8898,-0.8907,-0.8945,-0.8963,-0.8769,-0.8769,-0.8769,0,0,-0.8807,-0.879,-0.8809,-0.8816,-0.881,-0.8836,-0.8758,-0.879,-0.8809,-0.8736,-0.8781,-0.8769,-0.8763,-0.8824,-0.885,-0.8818,-0.8959,-0.8908,-0.8918,-0.8921,-0.8955,-0.8973,-0.899,-0.8774,-0.8773,-0.8773,0,0,-0.8932,-0.8922,-0.897,-0.8964,-0.8954,-0.8928,-0.894,-0.8919,-0.8907,-0.8951,-0.8897,-0.8919,-0.8953,-0.8951,-0.8954,-0.9076,-0.9035,-0.9083,-0.9161,-0.9198,-0.9214,-0.9227,-0.9271,-0.9287,-0.9092,-0.9092,-0.9092,0,-0.9011,-0.9047,-0.9,-0.9034,-0.9039,-0.8972,-0.902,-0.9017,-0.9014,-0.9019,-0.8983,-0.9022,-0.9014,-0.9073,-0.9103,-0.9108,-0.912,-0.9085,-0.9215,-0.9228,-0.924,-0.9281,-0.9297,-0.9098,-0.9097,-0.9097,-0.9096,0,-0.9143,-0.9169,-0.9209,-0.9205,-0.9214,-0.9256,-0.9216,-0.9231,-0.9198,-0.9176,-0.9222,-0.9208,-0.922,-0.9231,-0.9201,-0.9286,-0.9267,-0.9224,-0.916,-0.9265,-0.9303,-0.9318,-0.9106,-0.9104,-0.9103,-0.9101,0,0,-0.9334,-0.9301,-0.9317,-0.9314,-0.9297,-0.9317,-0.9355,-0.9364,-0.9378,-0.9377,-0.9409,-0.9438,-0.9397,-0.9401,-0.9369,-0.9401,-0.9499,-0.9354,-0.9353,-0.9381,-0.9592,-0.9625,-0.9644,-0.947,-0.9473,-0.9475,-0.9593,0,-0.9454,-0.9516,-0.9473,-0.9543,-0.9566,-0.9502,-0.9534,-0.9528,-0.9509,-0.9526,-0.9505,-0.9526,-0.9471,-0.9472,-0.9501,-0.9481,-0.954,-0.9471,-0.95,-0.9501,-0.9504,-0.9664,-0.9699,-0.9811,-0.9607,-0.9609,-0.9611,0,-0.9603,-0.9607,-0.9678,-0.9655,-0.9663,-0.9693,-0.9698,-0.9715,-0.9707,-0.969,-0.9693,-0.9652,-0.9689,-0.9625,-0.9674,-0.9628,-0.9637,-0.9628,-0.9632,-0.9634,-0.9563,-0.9671,-0.9845,-0.9863,-0.9634,-0.9632,-0.9631,0,-0.9735,-0.9758,-0.9803,-0.9802,-0.9776,-0.9799,-0.979,-0.9777,-0.9785,-0.979,-0.9794,-0.9803,-0.9809,-0.9817,-0.978,-0.9737,-0.9834,-0.9767,-0.9822,-0.9823,-0.9847,-0.9846,-1.0026,-0.9852,-0.9851,-0.9851,-0.9851,0,-0.9874,-0.992,-0.9861,-0.989,-0.9939,-0.989,-0.9941,-0.9925,-0.9914,-0.9938,-0.9883,-0.9907,-0.9856,-0.9876,-0.9847,-0.9892,-0.9895,-0.9883,-0.9875,-0.9889,-0.989,-0.9894,-0.9886,-0.9855,-0.9854,-0.9853,-0.9853,0,-1.0031,-0.9993,-1.0038,-1.0009,-1.0002,-1.004,-1.0016,-1.0041,-1.0016,-1.0048,-1.0052,-1.0014,-1.0034,-0.9997,-1.0013,-0.9993,-1.0057,-1.0036,-1.0059,-1.0054,-1.011,-1.0106,-1.03,-1.0323,-1.0134,-1.0136,-1.0137,0,-1.0122,-1.0156,-1.0129,-1.0141,-1.0134,-1.0153,-1.016,-1.0112,-1.0122,-1.0113,-1.014,-1.0154,-1.0163,-1.0197,-1.0172,-1.0183,-1.0163,-1.023,-1.0165,-1.0177,-1.0164,-1.0163,-1.0166,-1.0244,-1.0247,-1.0249,-1.025,0,-1.0289,-1.0268,-1.0279,-1.0284,-1.0293,-1.0295,-1.0293,-1.0306,-1.0255,-1.0269,-1.0287,-1.0294,-1.0308,-1.0324,-1.0328,-1.0319,-1.0277,-1.0271,-1.0284,-1.0298,-1.031,-1.0305,-1.0097,-1.0267,-1.0265,-1.0264,-1.0263,-1.0262,-1.0416,-1.0442,-1.0427,-1.0441,-1.0434,-1.0433,-1.0455,-1.0432,-1.0446,-1.0452,-1.0424,-1.0448,-1.0438,-1.0439,-1.0435,-1.0454,-1.0424,-1.0443,-1.0448,-1.0454,-1.0463,-1.0307,-1.0454,-1.0454,-1.0453,-1.0453,-1.0453,0,-1.058,-1.0566,-1.058,-1.0577,-1.0589,-1.0545,-1.054,-1.0553,-1.0574,-1.0567,-1.0576,-1.0597,-1.0611,-1.0586,-1.0596,-1.0616,-1.0597,-1.062,-1.0619,-1.0617,-1.0489,-1.0477,-1.0636,-1.0636,-1.0636,-1.0636,-1.0636,-1.0636,-1.0667,-1.0709,-1.0686,-1.0724,-1.071,-1.0732,-1.0733,-1.0732,-1.0725,-1.075,-1.0761,-1.0743,-1.0729,-1.0737,-1.0748,-1.074,-1.0747,-1.0778,-1.0764,-1.0644,-1.0627,-1.061,-1.0598,-1.0779,-1.078,-1.089,-1.0891,-1.0892]},{"header":{"parameterUnit":"m.s-1","parameterCategory":1,"la1":30.2991,"la2":30.254,"lo1":-89.0895,"lo2":-89.0444,"dy":0.0017,"dx":0.0017,"nx":28,"ny":28,"refTime":"2025-05-22T03:00:00:Z","depth":0,"parameterNumber":3,"parameterNumberName":"V-component_of_WINDS"},"data":[0,0,0,0,0,0,0,0,0,0,0,0,0,0,0,0,0,0,0,0,0,0,0,0,0,0,0,0,0,0,0,0,0,0,0,0,0,0,0,0,0,0,0,0,0,0,0,0,0,0,0,0,0,0,0,0,0,0,-1.8263,-1.8264,0,-1.8329,-1.833,-1.833,-1.8324,-1.8323,-1.8322,-1.8321,-1.8388,-1.8391,-1.8393,0,0,0,0,0,0,0,0,0,0,0,0,0,-1.813,-1.8133,-1.8263,-1.8264,-1.8264,-1.8329,-1.833,-1.8331,-1.8325,-1.8323,-1.8322,-1.8321,-1.8387,-1.839,-1.8393,0,0,0,0,0,0,0,0,0,0,0,0,0,-1.8191,-1.8133,-1.8263,-1.8269,-1.8271,-1.8329,-1.833,-1.8331,-1.8325,-1.8323,-1.8322,-1.832,-1.8386,-1.839,-1.8394,-1.8449,0,0,-1.8406,-1.8408,0,0,0,0,0,0,0,0,-1.8188,-1.8196,-1.8267,-1.8269,-1.827,-1.8317,-1.8307,-1.837,-1.8325,-1.8304,-1.8321,-1.832,-1.8365,-1.8371,-1.8387,-1.8452,-1.8455,-1.8407,-1.8409,-1.8411,-1.8412,0,0,0,0,0,0,0,-1.8183,-1.8193,-1.8289,-1.8269,-1.827,-1.8268,-1.8275,-1.8319,-1.8342,-1.8306,-1.8306,-1.8314,-1.8366,-1.8383,-1.8388,-1.8456,-1.8407,-1.841,-1.8413,-1.8414,-1.857,-1.8571,0,0,0,0,0,0,-1.8178,-1.819,-1.8287,-1.8291,-1.8225,-1.8272,-1.828,-1.8303,-1.8342,-1.8346,-1.8315,-1.8313,-1.8377,-1.8384,-1.8391,-1.8457,-1.8411,-1.8415,-1.8417,-1.8568,-1.857,-1.8572,0,0,0,0,0,0,-1.8175,-1.8187,-1.8284,-1.824,-1.8253,-1.8276,-1.8303,-1.8306,-1.8323,-1.8349,-1.8353,-1.8328,-1.8376,-1.8385,-1.8435,-1.8459,-1.8416,-1.842,-1.8566,-1.8568,-1.8571,-1.8591,0,0,0,0,0,0,-1.8171,-1.8186,-1.8207,-1.8241,-1.8255,-1.8328,-1.8304,-1.8308,-1.833,-1.8328,-1.8362,-1.8366,-1.8375,-1.8429,-1.8439,-1.8464,-1.8423,-1.8564,-1.8567,-1.857,-1.8589,-1.8594,-1.8599,0,0,0,0,0,-1.8167,-1.821,-1.8208,-1.822,-1.8283,-1.8329,-1.8337,-1.8347,-1.8332,-1.8353,-1.837,-1.8365,-1.8455,-1.8434,-1.8445,-1.8472,-1.8562,-1.8566,-1.857,-1.8586,-1.8593,-1.8599,0,0,0,0,0,0,-1.8179,-1.8215,-1.8213,-1.8269,-1.8296,-1.8328,-1.8356,-1.8354,-1.8386,-1.8383,-1.8393,-1.8401,-1.8451,-1.8467,-1.8442,-1.8527,-1.8507,-1.8513,-1.8515,-1.8522,-1.8527,-1.8522,-1.8427,0,0,0,0,0,-1.8188,-1.8223,-1.8253,-1.8299,-1.8313,-1.8332,-1.8353,-1.8358,-1.8386,-1.8397,-1.8418,-1.8445,-1.8479,-1.8502,-1.8535,-1.8591,-1.8598,-1.8615,-1.8621,-1.8625,-1.863,-1.866,-1.8668,-1.8584,-1.8584,-1.8584,0,0,-1.8208,-1.8232,-1.8253,-1.8303,-1.8324,-1.836,-1.8342,-1.838,-1.8407,-1.8403,-1.8451,-1.8467,-1.8498,-1.8551,-1.8575,-1.8566,-1.8655,-1.863,-1.8633,-1.8636,-1.8665,-1.8673,-1.868,-1.8587,-1.8586,-1.8586,0,0,-1.8261,-1.8283,-1.8324,-1.8346,-1.8379,-1.8391,-1.8401,-1.8433,-1.8444,-1.8492,-1.849,-1.8521,-1.8581,-1.8602,-1.8621,-1.8683,-1.8679,-1.8693,-1.8721,-1.875,-1.8757,-1.8762,-1.8784,-1.8791,-1.8698,-1.8698,-1.8698,0,-1.8281,-1.8335,-1.8345,-1.8384,-1.8406,-1.8404,-1.8445,-1.8466,-1.8508,-1.8522,-1.8511,-1.8585,-1.8606,-1.8663,-1.8678,-1.8694,-1.8705,-1.8689,-1.8755,-1.8761,-1.8767,-1.8787,-1.8795,-1.87,-1.87,-1.87,-1.8699,0,-1.8358,-1.8395,-1.8424,-1.8465,-1.849,-1.853,-1.8545,-1.8569,-1.8572,-1.8585,-1.8634,-1.8659,-1.8697,-1.8711,-1.8714,-1.8769,-1.8762,-1.8753,-1.8732,-1.8776,-1.8795,-1.8803,-1.8702,-1.8701,-1.8701,-1.8701,0,0,-1.8421,-1.8466,-1.8477,-1.8495,-1.8531,-1.856,-1.8599,-1.8637,-1.8656,-1.8685,-1.8718,-1.8768,-1.876,-1.8781,-1.8787,-1.8812,-1.8859,-1.88,-1.8801,-1.8809,-1.892,-1.8926,-1.8935,-1.8857,-1.8858,-1.8859,-1.8917,0,-1.8478,-1.8548,-1.8558,-1.862,-1.8654,-1.8653,-1.8687,-1.8713,-1.8726,-1.8757,-1.8771,-1.8806,-1.8793,-1.8806,-1.8831,-1.8848,-1.8881,-1.8844,-1.8886,-1.8888,-1.8878,-1.8945,-1.8952,-1.9005,-1.8924,-1.8926,-1.8927,0,-1.8553,-1.8584,-1.865,-1.868,-1.8695,-1.8726,-1.876,-1.879,-1.8818,-1.8826,-1.885,-1.8852,-1.8893,-1.887,-1.8925,-1.89,-1.8918,-1.8929,-1.8931,-1.8935,-1.891,-1.895,-1.9022,-1.903,-1.8939,-1.8938,-1.8937,0,-1.8592,-1.865,-1.8696,-1.8712,-1.8749,-1.8771,-1.8787,-1.8814,-1.8836,-1.8866,-1.888,-1.8914,-1.8933,-1.8959,-1.897,-1.8953,-1.9024,-1.9003,-1.9031,-1.9031,-1.9046,-1.9045,-1.9121,-1.9059,-1.9058,-1.9058,-1.9058,0,-1.8654,-1.8694,-1.8714,-1.8743,-1.8787,-1.8798,-1.8841,-1.8857,-1.8881,-1.8912,-1.8913,-1.8942,-1.8956,-1.8986,-1.8996,-1.9039,-1.9048,-1.9055,-1.9057,-1.9054,-1.9053,-1.9066,-1.9062,-1.906,-1.906,-1.906,-1.9059,0,-1.8704,-1.872,-1.877,-1.8801,-1.881,-1.8841,-1.8868,-1.8895,-1.8908,-1.8947,-1.8957,-1.8977,-1.9014,-1.9028,-1.9072,-1.9078,-1.9128,-1.9127,-1.9119,-1.9119,-1.9146,-1.9143,-1.9233,-1.9245,-1.9175,-1.9175,-1.9176,0,-1.8742,-1.8773,-1.8807,-1.8828,-1.8846,-1.888,-1.8902,-1.8913,-1.8936,-1.8971,-1.8994,-1.903,-1.906,-1.9117,-1.9136,-1.9169,-1.9169,-1.9198,-1.9174,-1.9171,-1.9169,-1.9167,-1.9169,-1.9202,-1.9203,-1.9204,-1.9204,0,-1.8808,-1.8814,-1.8846,-1.8881,-1.8907,-1.8935,-1.8962,-1.8979,-1.8995,-1.902,-1.9057,-1.908,-1.9125,-1.9161,-1.9196,-1.9212,-1.9211,-1.9212,-1.922,-1.9218,-1.9211,-1.9214,-1.913,-1.921,-1.9209,-1.9209,-1.9208,-1.9208,-1.8854,-1.888,-1.8909,-1.8944,-1.8966,-1.8991,-1.9018,-1.9034,-1.9066,-1.9103,-1.9108,-1.9148,-1.9175,-1.9222,-1.9239,-1.927,-1.9262,-1.9274,-1.9277,-1.928,-1.9281,-1.9207,-1.9277,-1.9276,-1.9276,-1.9276,-1.9276,0,-1.8919,-1.8937,-1.897,-1.9007,-1.9035,-1.9032,-1.9061,-1.9084,-1.9119,-1.9145,-1.9174,-1.9217,-1.9251,-1.9272,-1.9307,-1.9327,-1.9327,-1.9336,-1.9334,-1.9338,-1.9287,-1.9276,-1.9335,-1.9335,-1.9335,-1.9335,-1.9335,-1.9335,-1.8956,-1.9001,-1.9011,-1.9066,-1.9084,-1.9123,-1.914,-1.9163,-1.9184,-1.9231,-1.926,-1.9274,-1.9297,-1.9333,-1.9365,-1.937,-1.9382,-1.9391,-1.9396,-1.9348,-1.9341,-1.9336,-1.9326,-1.9394,-1.9394,-1.9444,-1.9445,-1.9445]}]]